sat.trackr.live / text

‹ back to catalog

CHUANGXIN 20B (CX-20B)

NORAD 58426 · 2023-181B

PAYLOAD ACTIVE UNKNOWN

§ Identity

Operator
Country
PRC
Launch date
2023-11-23
Launch site
XICLF
Launch vehicle
Mass (kg)
RCS (m²)

External: N2YO · Heavens-Above · Gunter

§ Orbital elements

Epoch: 2026-05-25T04:44:03.511968Z

Period
107.34 min
Inclination
49.9598°
Eccentricity
0.0010893
Mean motion
13.41488480 rev/d
Perigee alt
1,095.6 km
Apogee alt
1,111.9 km
Semi-major
7,481.9 km
B*
1.0812e-4
RAAN
51.0808°
Arg perigee
201.1780°
Mean anomaly
158.8647°
Rev number
12,265

§ Raw data

CHUANGXIN 20B (CX-20B)1 58426U 23181B   26145.19726287 -.00000068  00000+0  10812-3 0  99992 58426  49.9598  51.0808 0010893 201.1780 158.8647 13.41488480122659

JSON: /api/v1/satellites/58426 · /tle

For live sub-satellite position, see the globe view (requires WebGL).

§ Visibility from observer

Set your observer location to see the next 7 days of passes ≥ 10°. The values pass through the URL so the page stays shareable.

No JS? Fill the form by hand. The geolocation button needs JavaScript.